{"data":{"norad_id":57353,"epoch":"2026-05-25T02:31:18.086016Z","epoch_age_seconds":76486,"freshness":"FRESH","line1":"1 57353U 23099AB  26145.10507044  .00000145  00000+0  14795-4 0  9994","line2":"2 57353  43.0026 177.3918 0001398 268.5616  91.5076 15.27578682157801","mean_motion":15.27578682,"eccentricity":0.0001398,"inclination_deg":43.0026,"raan_deg":177.3918,"arg_perigee_deg":268.5616,"mean_anomaly_deg":91.5076,"bstar":1.4795e-5,"rev_number":15780,"period_min":94.266830047318,"perigee_km":482.09384824068,"apogee_km":484.01223697659,"semimajor_km":6861.1900426086,"source":"CELESTRAK","updated_at":"2026-05-25T13:38:18.290929Z"}}